User: anonymous   Login
Location: Newark
(31.9000°N, 35.2000°E)
Time: 12:26:55
(UTC+00:00)
Language:

LightSail 2 - Orbit

View from above orbital plane
View from above orbital plane
View from above satellite
View from above satellite

Ground track
Ground track

The orbit data is extracted from the following two-line orbital elements,

1 44420U 19036AC  19317.60663109 +.00005956 +00000-0 +13451-2 0  9996
2 44420 024.0078 035.7460 0017530 305.5761 054.3069 14.53639085018713
Epoch (UTC): 13 November 2019 14:33:32
Eccentricity: 0.0017530
inclination: 24.0078°
perigee height: 701 km
apogee height: 726 km
right ascension of ascending node: 35.7460°
argument of perigee: 305.5761°
revolutions per day: 14.53639085
mean anomaly at epoch: 54.3069°
orbit number at epoch: 1871

The dashed part of the orbit path shows where the satellite is in the earth's shadow,  

DLR